Regional Weather Roundup
Issued by NWS

Home | Current Version | Previous Version | Text Only | Print | Product List | Glossary Off
Versions: 1 2 3 4 5 6 7 8 9 10 11 12 13 14 15 16 17 18 19 20 21 22 23 24 25 26 27 28 29 30 31 32 33 34 35 36 37 38 39 40 41 42 43 44 45 46 47 48 49 50

000
ASUS43 KLOT 281908
RWRIL

ILLINOIS REGIONAL WEATHER ROUNDUP
NATIONAL WEATHER SERVICE CHICAGO/ROMEOVILLE IL
200 PM CDT TUE MAR 28 2017

NOTE: "FAIR" INDICATES FEW OR NO CLOUDS BELOW 12,000 FEET WITH NO
SIGNIFICANT WEATHER AND/OR OBSTRUCTIONS TO VISIBILITY.

* THESE STATIONS ARE NOT UNDER NWS QUALITY CONTROL. THEY ALSO MAY NOT
  REPORT WEATHER SUCH AS PRECIPITATION OR FOG.

ILZ001-002-007-009-015-016-024-282000-
NORTHWEST ILLINOIS

CITY           SKY/WX    TMP DP  RH WIND       PRES   REMARKS
MOLINE         CLOUDY    53  43  68 E9        30.13F
STERLING*      CLOUDY    49  41  74 N10       30.15S
SAVANNA*       CLOUDY    47  39  73 NE7       30.15F
$$

ILZ003-004-008-010-011-017-018-282000-
NORTH CENTRAL ILLINOIS

CITY           SKY/WX    TMP DP  RH WIND       PRES   REMARKS
ROCKFORD       CLOUDY    49  39  68 NE7       30.16S
FREEPORT*      CLOUDY    47  39  74 NE3       30.16F
ROCHELLE*      CLOUDY    46  39  76 NE8       30.15R
DE KALB*         N/A     46  40  79 N8        30.14S
PERU*          CLOUDY    47  40  76 N13       30.14S
$$

ILZ005-006-012>014-019>023-282000-
NORTHEAST ILLINOIS

CITY           SKY/WX    TMP DP  RH WIND       PRES   REMARKS
CHICAGO-OHARE  CLOUDY    48  37  65 N13       30.13R
CHICAGO-MIDWAY CLOUDY    46  37  71 NE13G21   30.13S
AURORA         CLOUDY    48  39  71 NE8       30.14R
LANSING*       CLOUDY    43  40  87 N9        30.13S
JOLIET*        CLOUDY    48  40  75 NE9       30.14R
WAUKEGAN       PTSUNNY   43  38  82 NE12      30.14S
DUPAGE AIRPORT CLOUDY    47  41  80 NE9       30.13R
KANKAKEE*      CLOUDY    47  39  72 N8        30.13R
WHEELING       CLOUDY    46  39  76 NE10      30.14F
MORRIS*        CLOUDY    47  39  73 CALM      30.13R
ROMEOVILLE*    CLOUDY    46  41  84 NE10      30.13R
NORTHERLY ISL    N/A     41  37  86 MISG        N/A
$$

LMZ740>746-282000-
SOUTHERN LAKE MICHIGAN

STATION/POSITION SKY/WX   TEMP    WIND        PRES    VSBY  WAVE
                          AIR SEA DIR/SP/G                  HT/PER
                          (F)     (DEG/KT/KT) (MB)    (MI)  (FT/S)
BURNHAM HARBOR             41     350/  8/ 14   N/A
CALUMET HARBOR             39     340/ 12/ 16 1020.0R
BURNS HARBOR               39     360/ 12/ 13 1020.3F
$$

ILZ025>027-034>036-040-047-049-050-058-095>099-282000-
WEST-CENTRAL ILLINOIS

CITY           SKY/WX    TMP DP  RH WIND       PRES   REMARKS
QUINCY         CLOUDY    53  48  83 NE6       30.11S
GALESBURG*     CLOUDY    50  45  81 NE6       30.13R
MACOMB*        CLOUDY    51  47  89 E9        30.15R
JACKSONVILLE*  CLOUDY    54  47  78 NE6       30.11S
PITTSFIELD*    CLOUDY    53  50  88 NE6       30.12S FOG
$$

ILZ028>032-037-038-041>044-048-051>054-059>061-282000-
CENTRAL ILLINOIS

CITY           SKY/WX    TMP DP  RH WIND       PRES   REMARKS
PONTIAC        CLOUDY    51  45  79 N9        30.13S
BLOOMINGTON    CLOUDY    52  44  74 N9        30.12S
DECATUR        CLOUDY    56  44  64 N9        30.10S
PEORIA         CLOUDY    52  43  71 VRB7      30.13S
LACON*         CLOUDY    51  43  74 N6        30.12F
LINCOLN*       CLOUDY    53  47  80 N5        30.12S
SPRINGFIELD    CLOUDY    56  45  66 E7        30.12S
TAYLORVILLE    CLOUDY    55  46  71 N5        30.10S
$$

ILZ033-039-045-046-055>057-062-063-282000-
EAST-CENTRAL ILLINOIS

CITY           SKY/WX    TMP DP  RH WIND       PRES   REMARKS
CHAMPAIGN      CLOUDY    55  42  61 NE9       30.10S
RANTOUL*       CLOUDY    54  44  69 N9G16     30.10F
MATTOON        CLOUDY    57  48  72 NE8G18    30.07S
PARIS*         PTSUNNY   57  48  72 N6        30.08F
$$

ILZ079-100>102-282000-
SOUTHWEST ILLINOIS

CITY           SKY/WX    TMP DP  RH WIND       PRES   REMARKS
ALTON          CLOUDY    55  46  71 NE6       30.10S
BELLEVILLE     CLOUDY    57  49  75 N5        30.09S
CAHOKIA*       CLOUDY    57  47  69 CALM      30.10R
SPARTA*        CLOUDY    54  48  80 NW5       30.10S
$$

ILZ064>066-069>071-074>076-080>082-084>086-088>090-092>094-282000-
SOUTH-CENTRAL ILLINOIS

CITY           SKY/WX    TMP DP  RH WIND       PRES   REMARKS
CARBONDALE     CLOUDY    57  51  80 NW6       30.07F
CAIRO*         CLOUDY    59  52  78 N6        30.06F
EFFINGHAM*     CLOUDY    59  50  71 CALM      30.09S
MARION         CLOUDY    61  54  77 W6        30.08F
MT. VERNON     PTSUNNY   60  49  66 CALM      30.07F
CENTRALIA*     CLOUDY    56  49  76 NW7       30.08S
SALEM*         CLOUDY    57  48  71 NW6       30.08F
METROPOLIS*    CLOUDY    60  53  77 N7        30.06F
$$

ILZ067-068-072-073-078-083-087-091-282000-
SOUTHEAST ILLINOIS

CITY           SKY/WX    TMP DP  RH WIND       PRES   REMARKS
LAWRENCEVILLE  CLOUDY    62  51  67 N6        30.06S
FLORA*         CLOUDY    59  49  69 NW3       30.07F
FAIRFIELD*     CLOUDY    59  49  69 CALM      30.06S
HARRISBURG*    CLOUDY    58  52  79 NW3       30.07F
ROBINSON*      PTSUNNY   59  50  73 NW7       30.07S
CARMI*         CLOUDY    61  52  71 NW5       30.05F
$$

ABBREVIATIONS USED IN REMARKS
   TC - TEMPERATURE IN CELSIUS
  WCI - WIND CHILL INDEX
   HX - HEAT INDEX
  VSB - VISIBILITY
$$





USA.gov is the U.S. government's official web portal to all federal, state and local government web resources and services.